Date,TemperatureHighF,TemperatureAvgF,TemperatureLowF,DewpointHighF,DewpointAvgF,DewpointLowF,HumidityHigh,HumidityAvg,HumidityLow,PressureMaxIn,PressureMinIn,WindSpeedMaxMPH,WindSpeedAvgMPH,GustSpeedMaxMPH,PrecipitationSumIn
2013-3-1,29,24,16,-100,-100,-100,0,0,100,0.00,40.00,0,-999,0,0.01
2013-3-2,41,31,26,-100,-100,-100,0,0,100,0.00,40.00,0,-999,0,0.01
2013-3-3,45,34,24,-100,-100,-100,0,0,100,0.00,40.00,0,-999,0,0.01
2013-3-4,32,24,4,-100,-100,-100,0,0,100,0.00,40.00,0,-999,0,0.01
2013-3-5,35,20,1,-100,-100,-100,0,0,100,0.00,40.00,0,-999,0,0.02
2013-3-6,49,31,13,-100,-100,-100,0,0,100,0.00,40.00,0,-999,0,0.01
2013-3-7,50,36,22,-100,-100,-100,0,0,100,0.00,40.00,0,-999,0,0.00
2013-3-8,51,34,22,-100,-100,-100,0,0,100,0.00,40.00,0,-999,0,0.00
2013-3-9,35,26,15,-100,-100,-100,0,0,100,0.00,40.00,0,-999,0,0.01
2013-3-10,35,23,14,-100,-100,-100,0,0,100,0.00,40.00,0,-999,0,0.00
2013-3-11,36,24,15,-100,-100,-100,0,0,100,0.00,40.00,0,-999,0,0.01
2013-3-12,39,32,24,-100,-100,-100,0,0,100,0.00,40.00,0,-999,0,0.01
2013-3-13,49,36,26,-100,-100,-100,0,0,100,0.00,40.00,0,-999,0,0.00
2013-3-14,51,37,25,-100,-100,-100,0,0,100,0.00,40.00,0,-999,0,0.00
2013-3-15,55,43,29,-100,-100,-100,0,0,100,0.00,40.00,0,-999,0,0.00
2013-3-16,44,37,30,-100,-100,-100,0,0,100,0.00,40.00,0,-999,0,0.00
2013-3-17,38,28,22,-100,-100,-100,0,0,100,0.00,40.00,0,-999,0,0.00
2013-3-18,33,24,12,-100,-100,-100,0,0,100,0.00,40.00,0,-999,0,0.00
2013-3-19,37,28,15,-100,-100,-100,0,0,100,0.00,40.00,0,-999,0,0.01
2013-3-20,44,27,11,-100,-100,-100,0,0,100,0.00,40.00,0,-999,0,0.01
2013-3-21,42,30,20,-100,-100,-100,0,0,100,0.00,40.00,0,-999,0,0.01
2013-3-22,35,21,11,-100,-100,-100,0,0,100,0.00,40.00,0,-999,0,0.00
2013-3-23,20,16,11,-100,-100,-100,0,0,100,0.00,40.00,0,-999,0,0.02
2013-3-24,20,9,1,-100,-100,-100,0,0,100,0.00,40.00,0,-999,0,0.01
2013-3-25,28,15,1,-100,-100,-100,0,0,100,0.00,40.00,0,-999,0,0.01
2013-3-26,44,27,6,-100,-100,-100,0,0,100,0.00,40.00,0,-999,0,0.01
2013-3-27,48,36,28,-100,-100,-100,0,0,100,0.00,40.00,0,-999,0,0.01
2013-3-28,50,36,22,-100,-100,-100,0,0,100,0.00,40.00,0,-999,0,0.00
2013-3-29,49,38,28,-100,-100,-100,0,0,100,0.00,40.00,0,-999,0,0.00
2013-3-30,47,36,27,-100,-100,-100,0,0,100,0.00,40.00,0,-999,0,0.00
2013-3-31,52,36,23,-100,-100,-100,0,0,100,0.00,40.00,0,-999,0,0.00